Hourly Data Report for July 30, 2021

SARNIA
ONTARIO
Current Station Operator: NAVCAN

42°59'58.000" N
82°18'32.000" W
181.40 m
6127510
71704
YZR

Download Data

Hourly Data (July 2021)
Hourly Data Report for July 30, 2021
TIME
LST
Temp Definition
°C
Dew Point Definition
°C
Rel Hum Definition
%
Precip. Amount Definition
mm

Wind Dir Definition
10's deg

Wind Spd Definition
km/h
Visibility Definition
km
Stn Press Definition
kPa
Hmdx Definition


Wind Chill Definition


Weather Definition


00:00 20.8 16.6 77 0.0 1 34 16.1 99.18 26   LegendNANA
01:00 20.3 17.4 83 0.0 36 30 16.1 99.20 26   LegendNANA
02:00 19.9 17.0 83 0.0 34 28 16.1 99.26     LegendNANA
03:00 19.0 16.7 86 0.0 33 24 16.1 99.29     LegendNANA
04:00 18.3 16.3 88 0.0 32 22 16.1 99.34     LegendNANA
05:00 17.7 16.2 91 0.0 33 21 16.1 99.37     LegendNANA
06:00 18.9 15.8 82 0.0 3 30 16.1 99.42     LegendNANA
07:00 18.7 14.4 76 0.0 3 17 16.1 99.48     LegendNANA
08:00 19.4 15.0 75 0.0 2 24 16.1 99.56     LegendNANA
09:00 19.4 14.8 74 0.0 3 22 16.1 99.61     LegendNANA
10:00 19.2 13.6 70 0.0 1 28 16.1 99.69     LegendNANA
11:00 19.3 13.0 67 0.0 1 24 16.1 99.76     LegendNANA
12:00 19.8 13.2 65 0.0 2 34 16.1 99.78     LegendNANA
13:00 18.6 11.9 65 0.0 2 26 16.1 99.79     LegendNANA
14:00 19.3 12.1 63 0.0 2 24 16.1 99.78     LegendNANA
15:00 19.0 11.3 61 0.0 2 26 16.1 99.78     LegendNANA
16:00 18.6 11.2 62 0.0 2 22 16.1 99.74     LegendNANA
17:00 18.4 11.2 63 0.0 2 21 16.1 99.73     LegendNANA
18:00 17.9 11.2 65 0.0 2 21 16.1 99.71     LegendNANA
19:00 16.4 11.8 74 0.0 3 8 16.1 99.74     LegendNANA
20:00 14.9 11.9 82 0.0   0 16.1 99.72     LegendNANA
21:00 14.2 11.4 83 0.0 20 8 16.1 99.75     LegendNANA
22:00 13.5 11.6 88 0.0 LegendMM 4 16.1 99.75     LegendNANA
23:00 12.4 11.3 93 0.0 15 4 16.1 99.72     LegendNANA

Notes on Data Quality.

Legend

  • E = Estimated
  • M = Missing
  • NA = Not Available*
  • [empty] = Indicates an unobserved value
Date modified: